Location: Cella
(44.7333°N, 10.5667°E)
Time: 05:14:48
(UTC+00:00)

Cosmos 2333 - Pass Details

Date: 03 March 2021
Orbit: 829 x 867 km, 70.9° (Epoch: 13 April)

Event Time Altitude Azimuth Distance (km) Brightness Sun altitude
Rises 18:29:47 0° 186° (S) 3,369 7.3 -15.3°
Reaches altitude 10° 18:32:16 10° 181° (S) 2,443 6.5 -15.7°
Maximum altitude 18:37:38 48° 108° (ESE) 1,093 4.4 -16.6°
Drops below altitude 10° 18:43:04 10° 36° (NE) 2,484 6.4 -17.6°
Sets 18:45:37 0° 31° (NNE) 3,430 7.2 -18.0°
